Regional Weather Roundup
Issued by NWS

Home | Current Version | Previous Version | Graphics & Text | Print | Product List | Glossary On
Versions: 1 2 3 4 5 6 7 8 9 10 11 12 13 14 15 16 17 18 19 20 21 22 23 24 25 26 27 28 29 30 31 32 33 34 35 36 37 38 39 40 41 42 43 44 45 46 47 48 49 50
000
ASUS43 KIND 300909
RWRIN

WEATHER ROUNDUP FOR INDIANA
NATIONAL WEATHER SERVICE INDIANAPOLIS IN
500 AM EDT SUN AUG 30 2015

NOTE: "FAIR" INDICATES FEW OR NO CLOUDS BELOW 12,000 FEET WITH NO
SIGNIFICANT WEATHER AND/OR OBSTRUCTIONS TO VISIBILITY.

* - STATION DOES NOT REPORT WEATHER SUCH AS PRECIPITATION OR FOG.

+ - STATION NOT QUALITY CONTROLLED BY THE NATIONAL WEATHER SERVICE.
    USE DATA WITH CAUTION...ESPECIALLY DEWPOINT AND RELATIVE
    HUMIDITY OBSERVATIONS.

INZ001>003-010>013-019-020-301000-
NORTHWEST INDIANA

CITY           SKY/WX    TMP DP  RH WIND       PRES   REMARKS
GARY /AIRPORT/ CLOUDY    65  64  93 N7        30.03S FOG
KNOX *+        CLOUDY    64  64 100 CALM      30.01R VSB 3/4
LA PORTE +     FOG      N/A N/A N/A CALM      30.02S VSB 1/2
MICHIGAN CITY+ CLOUDY    66  66 100 CALM      30.02S FOG
MONTICELLO +   CLEAR     66  66 100 SW3       30.01S FOG
RENSSELAER +   PTCLDY    66  66 100 SW3       30.02R FOG
VALPARAISO     FOG       68  67  96 N3        30.02S VSB 1/2

$$

LMZ046-743>745-301000-
SOUTHERN LAKE MICHIGAN

STATION/POSITION TIME  TEMP    WIND        PRES    WAVE
                       AIR SEA DIR/SP/G            HT
                 (UTC) (F)     (DEG/KT/KT) (MB)    (FT)
BURNS HARBOR     0800   68     340/  3/  3 1016.9S
MICHIGAN CITY    0800   67     310/  3/  4   N/A
5NW MICH CITY    0900   68 71  340/  8/ 10   N/A     1

$$

INZ004-005-014>016-021>024-301000-
NORTH CENTRAL INDIANA

CITY           SKY/WX    TMP DP  RH WIND       PRES   REMARKS
GOSHEN         CLOUDY    66  63  90 CALM      30.02S
LOGANSPORT +   CLOUDY    63  61  94 CALM      30.03S FOG
PERU/GRISSOM   PTCLDY    66  66 100 S1        30.02S
ROCHESTER +    MOCLDY    68  68 100 CALM      30.03S
SOUTH BEND     CLOUDY    67  66  97 SW5       30.02S FOG
WARSAW +       CLOUDY    64  64 100 CALM      30.03S

$$

INZ006>009-017-018-025>027-301000-
NORTHEAST INDIANA

CITY           SKY/WX    TMP DP  RH WIND       PRES   REMARKS
ANGOLA *+      CLOUDY    66  57  72 CALM      30.03S
AUBURN +       CLOUDY    68  64  88 CALM      30.04F FOG
FORT WAYNE     CLOUDY    67  66  97 S5        30.03F
HUNTINGTON +   MOCLDY    65  61  85 S5        30.02F

$$

INZ028-029-035-036-043>045-051>053-301000-
WEST CENTRAL INDIANA

CITY           SKY/WX    TMP DP  RH WIND       PRES   REMARKS
CRAWFORDSVL +  PTCLDY    60  60 100 SW3       30.04R FOG
GREENCASTLE +  PTCLDY    64  61  88 CALM      30.05R FOG
LAFAYETTE      FOG       63  63 100 CALM      30.02R VSB 1/4
TERRE HAUTE    CLEAR     63  62  97 CALM      30.04R

$$

INZ030>032-037>040-046>048-054>057-064-065-301000-
CENTRAL INDIANA

CITY           SKY/WX    TMP DP  RH WIND       PRES   REMARKS
FRANKFORT +    FOG      N/A N/A N/A CALM      30.05S VSB<1/4
GREENWOOD *+   MOCLDY    70  66  88 CALM      30.05S
INDIANAPOLIS   MOCLDY    70  66  87 W3        30.03R
-EAGLE CREEK   PTCLDY    68  67  96 CALM      30.03S
KOKOMO *+      PTCLDY    64  61  88 CALM      30.03S
MARION +       HAZE      65  60  84 CALM      30.04S VSB 1/2
MT COMFORT *+  MOCLDY    68 N/A N/A S3        30.05R
SHELBYVILLE    CLOUDY    73  68  84 S5        30.04S
ZIONSVILLE +     N/A     64  61  90 CALM      30.05S FOG

$$

INZ033-034-041-042-049-050-058-059-301000-
EAST CENTRAL INDIANA

CITY           SKY/WX    TMP DP  RH WIND       PRES   REMARKS
MUNCIE         MOCLDY    69  66  90 SW3       30.04S

$$

INZ060-061-067>069-081>083-085>088-301000-
SOUTHWEST INDIANA

CITY           SKY/WX    TMP DP  RH WIND       PRES   REMARKS
EVANSVILLE     MOCLDY    72  70  93 SW3       30.04S
HUNTINGBURG *+ CLOUDY    70  66  88 S6        30.05S
WASHINGTON +   MOCLDY    70  66  87 CALM      30.03S

$$

INZ062-063-066-070>080-084-089>092-301000-
SOUTH CENTRAL AND SOUTHEAST INDIANA

CITY           SKY/WX    TMP DP  RH WIND       PRES   REMARKS
BLOOMINGTON    MOCLDY    70  68  93 CALM      30.05R
MADISON *+     PTCLDY    68  64  88 S5        30.09S
NORTH VERNON + MOCLDY    70  70 100 S5        30.06F
SEYMOUR +      MOCLDY    68  68 100 CALM      30.05S

$$



USA.gov is the U.S. government's official web portal to all federal, state and local government web resources and services.